Weather in Yamskaya Sloboda

Russia / Novgorod Oblast     58°15′45″N   32°30′55″E
temp.,
°C
wind,
m/s
gust,
m/s
humid.,
%
clouds,
%
prec.,
mm/h
press.,
hPa
HPBL,
m
5 december, sun
sun500:00−13nne119992 0.0 101123
03:00−15ne1110088 0.0 101217
06:00−13ene379478 0.0 1012183
09:00−14ene389290 0.1 1015236
12:00−13ene388923 0.0 1017294
15:00−13ene37895 0.0 1018306
18:00−15ene38925 0.0 1019244
21:00−16ene399110 0.0 1021256
6 december, mon
mon600:00−17ene389259 0.0 1022220
03:00−17ene389168 0.0 1022223
06:00−17e389365 0.0 1022212
09:00−16e399385 0.0 1022234
12:00−12e389093 0.1 1022291
15:00−11e3892100 0.1 1021361
18:00−10e3993100 0.3 1020340
21:00−9e3892100 0.4 1019307
7 december, tue
tue700:00−8ese3894100 0.1 1018280
03:00−7e3895100 0.8 1016266
06:00−6e3896100 0.6 1014315
09:00−5e3796100 1.1 1012300
12:00−4e2494100 0.5 1012255
15:00−5n129872 0.8 101147
18:00−8nnw119880 0.1 101221
21:00−10nw129999 0.1 101242
8 december, wed
wed800:00−10nw259787 0.1 1013119
03:00−12wnw249888 0.1 101488
06:00−14w139990 0.1 101564
09:00−14w119994 0.1 101737
12:00−10wnw249489 0.1 1018177
15:00−12w119755 0.1 101929
18:00−17nw1110076 0.0 102111
21:00−19ne1110093 0.0 102211
9 december, thu
thu900:00−20ene1110095 0.0 102311
03:00−20nne1110090 0.0 102314
06:00−19ne1110081 0.0 102315
09:00−19nne1110064 0.0 102317
12:00−12n1293100 0.0 102381
15:00−11n2396100 0.0 102373
18:00−13nne249781 0.0 102363
21:00−16n229966 0.0 102335